Location: Appletree Creek
(38.7363°N, 122.6833°W)
Time: 09:13:13
(UTC+00:00)

Cosmos 44 - Pass Details

Date: 18 September 2020
Orbit: 580 x 781 km, 65.1° (Epoch: 21 October)

Event Time Altitude Azimuth Distance (km) Brightness Sun altitude
Exits shadow 12:38:50 26° 273° (W) 1,206 4.0 -15.6°
Maximum altitude 12:40:15 32° 309° (NW) 1,062 3.9 -15.3°
Drops below altitude 10° 12:44:22 10° 13° (NNE) 2,035 6.1 -14.5°
Sets 12:46:56 0° 23° (NNE) 2,985 7.1 -14.0°
